Simultaneous Nadir Overpasses (SNOs) Predictions

Prediction of SNOs between AURA and NPP Satellite Orbit:

Table of predicted SNOs for the next 14.0 days since TLE Epoch: 12/10/2016
Index Date (AURA) Time (AURA) Lat,Lon (AURA) SZA (AURA ) Date (NPP) Time (NPP) Lat,Lon (NPP) SZA (NPP ) Distance(km) Time Diff (sec)
1 12/10/2016 10:35:15 -79.48, 97.80 65.32 12/10/2016 10:34:32 -79.49, 97.94 65.31 3.08 43
2 12/10/2016 11:24:35 79.66, -93.24 114.43 12/10/2016 11:25:10 79.66, -93.31 114.42 1.49 35
3 12/13/2016 02:51:42 -79.51,-146.10 65.11 12/13/2016 02:51:25 -79.51,-146.11 65.09 0.32 17
4 12/13/2016 03:41:00 79.80, 23.68 114.49 12/13/2016 03:42:00 79.80, 23.77 114.43 1.81 60
5 12/15/2016 18:18:47 79.37, 161.22 115.28 12/15/2016 18:17:38 79.37, 161.24 115.33 0.49 69
6 12/15/2016 19:08:09 -79.57, -29.78 64.99 12/15/2016 19:08:18 -79.56, -29.90 64.98 2.64 9
7 12/18/2016 10:35:14 79.42, -82.54 115.36 12/18/2016 10:34:31 79.42, -82.58 115.40 0.91 43
8 12/18/2016 11:24:33 -79.73, 87.30 65.08 12/18/2016 11:25:07 -79.74, 87.41 65.12 2.25 34
9 12/21/2016 02:51:40 79.51, 33.92 115.34 12/21/2016 02:51:23 79.50, 33.86 115.36 1.36 17
10 12/21/2016 03:40:58 -79.81,-156.20 65.10 12/21/2016 03:41:58 -79.81,-156.11 65.16 1.71 60
11 12/23/2016 18:18:43 -79.44, -18.28 64.54 12/23/2016 18:17:34 -79.45, -18.14 64.51 2.83 69




NCC Satellite Simultaneous N
